BREEZE-M R/B, 38343

Orbit data source: Space-Track

BREEZE-M R/B, 38343 is space debris in HEO originally from a launch on Thu, 17 May 2012 UTC launched from the Tyuratam Missile And Space Complex (TTMTR). Debris objects in space refer to the collection of defunct objects orbiting the Earth. Examples of debris include non-operational satellites, rocket bodies, and fragments generated from explosions, collisions, or faulty payload assembly.

Loading next visibility...
Identifier
38343, 2012-026B
Orbit
HEO
Country
Flag of CISCIS
Related business
Manufacturer
Khrunichev
Mission
Spacecraft
Bus & Motor
BRIZ, Unknown motor
Mass
~1,600 kg wet, 1,600 kg dry
Launch date (UTC)
2012-05-17 (13 years ago)
Launch vehicle
Unknown
Launch site
Tyuratam Missile And Space Complex (TTMTR)
Object type
Payload
Rocket body
Debris
Shape & HBR
Cyl, 2.0 m
Radar Cross Section
15.135 m², Large (>1 m²)

Expand to show TLE details & history
Last TLE update: 1 day ago

TLE from 1 day ago
0 BREEZE-M R/B
1 38343U 12026B   25308.65100649 -.00000028  00000-0  00000-0 0  9992
2 38343   9.9707 154.3698 4108048  12.1633 355.5564  1.76701629 86604
Epoch: 2025-11-04T15:37Z
TLE epoch observation values (Epoch: 2025-11-04T15:37:26.960Z)
Latitude
0.00001°
Longitude
-124.04558°
Altitude
10,771.732 km
Speed
5.718 km/s
True Right ascension
10h 17m 48s
True Declination
0° 00' 00"
Sunlit
Object was in daylight at epoch
Visualization orbit readout
Latitude
Unknown
Longitude
Unknown
Altitude
Unknown
Speed
Unknown
Apparent Right ascension
Unknown
Apparent Declination
Unknown
Sunlit
N/A
Visualization observer readout
Local Sidereal Time
12:34:52
Azimuth
Unknown
Elevation
Unknown
Doppler factor
Unknown
Orbital elements
Apogee altitude
34,397.823 km
Perigee altitude
10,651.15 km
Semi-major axis
28,902.623 km
Eccentricity
0.4108
Inclination
9.9707°
RAAN
154.3698°
Arg. of periapsis
12.1633°
True anomaly
348.37635°
Mean anomaly
355.5564°
Eccentric anomaly
352.47327°
Mean motion
0.44171 °/min
Orbital period
815.01 mins
BSTAR
0
Loading maneuver chart data...
Computing Atmospheric mass density...
Loading historical data...
Loading historical data...
Loading historical data...
Loading historical data...
Loading historical data...
Loading historical data...
Loading historical data...

Documentation

Showing up to 5 results
|